Weather History for Cape Newenham, AK

Change the Weather History Date:

Friday, November 9, 2012

  Actual Average Record
Temperature  
Mean Temperature 40 °F -  
Max Temperature 43 °F 33 °F 44 °F (2000)
Min Temperature 38 °F 26 °F 6 °F (2005)
Degree Days  
Heating Degree Days 24    
Moisture  
Dew Point -    
Average Humidity    
Maximum Humidity    
Minimum Humidity    
Precipitation  
Precipitation 0.00 in - - ()
Sea Level Pressure  
Sea Level Pressure 29.38 in    
Wind  
Wind Speed 25 mph (ESE)    
Max Wind Speed 34 mph    
Max Gust Speed 53 mph    
Visibility 9 miles    
Events Rain , Thunderstorm    
Averages and records for this station are not official NWS values.
T = Trace of Precipitation, MM = Missing Value Source: NWS Daily Summary

Daily Weather History Graph

Daily Weather History Graph

Search for Another Location

Airport:

Trip Planner

Search our weather history database for the weather conditions in past years. The results will help you decide how hot, cold, wet, or windy it might be!

Date:

Astronomy

Nov. 09, 2012 Rise Set
Actual Time 9:25 AM AKST 5:37 PM AKST
Civil Twilight 8:40 AM AKST 6:22 PM AKST
Nautical Twilight 7:52 AM AKST 7:11 PM AKST
Astronomical Twilight 7:05 AM AKST 7:57 PM AKST
Moon 3:38 AM AKST (11/9) 3:48 PM AKST (11/9)
Length of Visible Light 9h 41m
Length of Day
8h 11m
Waning Crescent, 22% of the Moon is Illuminated
Nov 9
Waning Crescent
Nov 13
New
Nov 20
First Quarter
Nov 28
Full
Dec 6
Last Quarter

Hourly Weather History & Observations

Time (AKST) Temp. Windchill Dew Point Humidity Pressure Visibility Wind Dir Wind Speed Gust Speed Precip Events Conditions
12:22 AM 41.0 °F 30.2 °F - N/A% 29.47 in 10.0 mi ESE 27.6 mph 39.1 mph N/A   Overcast
12:42 AM 41.0 °F 29.7 °F - N/A% 29.45 in 10.0 mi ESE 31.1 mph 46.0 mph N/A Rain Light Rain Showers
12:55 AM 41.4 °F 31.4 °F - N/A% 29.45 in 10.0 mi ESE 24.2 mph 42.6 mph N/A Rain , Thunderstorm Light Rain Showers
1:22 AM 41.0 °F 30.5 °F - N/A% 29.44 in 10.0 mi ESE 26.5 mph 33.4 mph N/A Rain Light Rain Showers
1:42 AM 41.0 °F 29.5 °F - N/A% 29.42 in 5.0 mi ESE 32.2 mph 46.0 mph N/A Rain Light Rain Showers
1:55 AM 41.7 °F 30.1 °F - N/A% 29.42 in 4.0 mi ESE 34.5 mph 52.9 mph N/A Rain Light Rain Showers
2:55 AM 41.5 °F 31.4 °F - N/A% 29.40 in 10.0 mi SE 25.3 mph 48.3 mph N/A Rain Light Rain Showers
3:02 AM 41.0 °F 31.1 °F - N/A% 29.39 in 10.0 mi ESE 23.0 mph 38.0 mph N/A   Overcast
3:55 AM 42.8 °F 32.9 °F - N/A% 29.36 in 10.0 mi SE 26.5 mph 49.5 mph N/A   Mostly Cloudy
4:22 AM 42.8 °F 33.1 °F - N/A% 29.36 in 10.0 mi ESE 25.3 mph 41.4 mph N/A   Mostly Cloudy
4:55 AM 42.8 °F 32.7 °F - N/A% 29.33 in 10.0 mi ESE 27.6 mph 49.5 mph N/A   Overcast
5:42 AM 42.8 °F 32.5 °F - N/A% 29.34 in 10.0 mi SE 28.8 mph 40.3 mph N/A   Mostly Cloudy
5:55 AM 42.1 °F 31.3 °F - N/A% 29.34 in 10.0 mi ESE 29.9 mph 42.6 mph N/A   Mostly Cloudy
6:55 AM 41.5 °F 31.4 °F - N/A% 29.35 in 10.0 mi ESE 25.3 mph 41.4 mph N/A   Overcast
7:55 AM 42.3 °F 32.2 °F - N/A% 29.34 in 10.0 mi East 26.5 mph 39.1 mph N/A   Overcast
8:55 AM 39.2 °F 28.5 °F - N/A% 29.33 in 10.0 mi East 24.2 mph 29.9 mph N/A   Mostly Cloudy
9:55 AM 39.0 °F 29.3 °F - N/A% 29.35 in 10.0 mi East 19.6 mph - N/A   Overcast
10:02 AM 39.2 °F 29.0 °F - N/A% 29.35 in 10.0 mi East 21.9 mph - N/A   Overcast
10:55 AM 38.8 °F 30.4 °F - N/A% 29.35 in 10.0 mi ESE 15.0 mph - N/A   Mostly Cloudy
11:22 AM 39.2 °F 29.8 °F - N/A% 29.35 in 10.0 mi East 18.4 mph 26.5 mph N/A   Mostly Cloudy
11:42 AM 41.0 °F 30.0 °F - N/A% 29.34 in 10.0 mi ESE 28.8 mph 33.4 mph N/A   Overcast
11:55 AM 42.1 °F 31.9 °F - N/A% 29.34 in 10.0 mi ESE 26.5 mph 35.7 mph N/A   Mostly Cloudy
12:22 PM 42.8 °F 33.3 °F - N/A% 29.34 in 10.0 mi ESE 24.2 mph 29.9 mph N/A   Mostly Cloudy
12:42 PM 42.8 °F 34.8 °F - N/A% 29.35 in 6.0 mi SE 17.3 mph 31.1 mph N/A Rain Light Rain
12:55 PM 42.8 °F 34.0 °F - N/A% 29.34 in 6.0 mi ESE 20.7 mph 38.0 mph N/A Rain Light Rain
1:22 PM 42.8 °F 34.3 °F - N/A% 29.35 in 4.0 mi ESE 19.6 mph 35.7 mph N/A Rain Light Rain Showers
1:42 PM 42.8 °F 34.5 °F - N/A% 29.35 in 9.0 mi SE 18.4 mph 31.1 mph N/A Rain Light Rain Showers
1:55 PM 43.0 °F 34.2 °F - N/A% 29.35 in 3.0 mi SE 20.7 mph 46.0 mph N/A Rain Light Rain Showers
2:42 PM 42.8 °F 33.1 °F - N/A% 29.33 in 9.0 mi SE 25.3 mph 38.0 mph N/A Rain Light Rain
2:55 PM 42.8 °F 32.9 °F - N/A% 29.32 in 8.0 mi SE 26.5 mph 42.6 mph N/A Rain Light Rain Showers
3:22 PM 42.8 °F 33.3 °F - N/A% 29.33 in 10.0 mi SE 24.2 mph 36.8 mph N/A   Mostly Cloudy
3:42 PM 42.8 °F 32.7 °F - N/A% 29.33 in 10.0 mi SE 27.6 mph 42.6 mph N/A   Mostly Cloudy
3:55 PM 42.8 °F 34.3 °F - N/A% 29.34 in 10.0 mi ESE 19.6 mph 46.0 mph N/A   Mostly Cloudy
4:55 PM 43.0 °F 33.1 °F - N/A% 29.34 in 10.0 mi ESE 26.5 mph 35.7 mph N/A   Mostly Cloudy
5:22 PM 41.0 °F 31.1 °F - N/A% 29.37 in 10.0 mi ESE 23.0 mph - N/A   Mostly Cloudy
5:42 PM 39.2 °F 29.3 °F - N/A% 29.37 in 10.0 mi ESE 20.7 mph - N/A   Light Drizzle
5:55 PM 39.2 °F 28.5 °F - N/A% 29.38 in 10.0 mi ESE 24.2 mph - N/A   Light Drizzle
6:02 PM 39.2 °F 28.7 °F - N/A% 29.38 in 10.0 mi ESE 23.0 mph - N/A Rain Light Rain Showers
6:22 PM 41.0 °F 30.0 °F - N/A% 29.37 in 6.0 mi SE 28.8 mph - N/A Rain Light Rain Showers
6:55 PM 42.8 °F 33.8 °F - N/A% 29.37 in 10.0 mi ESE 21.9 mph 29.9 mph N/A Rain Light Rain Showers
7:22 PM 41.0 °F 31.9 °F - N/A% 29.41 in 10.0 mi ESE 19.6 mph 25.3 mph N/A   Mostly Cloudy
7:55 PM 39.9 °F 32.1 °F - N/A% 29.42 in 10.0 mi ESE 13.8 mph - N/A   Overcast
8:02 PM 39.2 °F 30.2 °F - N/A% 29.42 in 10.0 mi ESE 17.3 mph 21.9 mph N/A   Overcast
8:42 PM 41.0 °F 31.1 °F - N/A% 29.42 in 10.0 mi SE 23.0 mph 33.4 mph N/A Rain Light Rain
8:55 PM 41.0 °F 31.1 °F - N/A% 29.42 in 10.0 mi SE 23.0 mph 29.9 mph N/A Rain Light Rain Showers
9:02 PM 41.0 °F 31.4 °F - N/A% 29.42 in 10.0 mi SE 21.9 mph 29.9 mph N/A   Mostly Cloudy
9:22 PM 41.0 °F 30.7 °F - N/A% 29.42 in 10.0 mi SE 25.3 mph 31.1 mph N/A   Mostly Cloudy
9:42 PM 41.0 °F 31.1 °F - N/A% 29.43 in 10.0 mi SE 23.0 mph 29.9 mph N/A   Mostly Cloudy
9:55 PM 40.8 °F 30.9 °F - N/A% 29.43 in 10.0 mi SE 23.0 mph 29.9 mph N/A   Mostly Cloudy
10:02 PM 41.0 °F 31.4 °F - N/A% 29.43 in 10.0 mi SE 21.9 mph 34.5 mph N/A Rain Light Rain Showers
10:42 PM 41.0 °F 30.5 °F - N/A% 29.43 in 10.0 mi SE 26.5 mph 35.7 mph N/A Thunderstorm Mostly Cloudy
10:55 PM 40.8 °F 30.0 °F - N/A% 29.43 in 10.0 mi ESE 27.6 mph 38.0 mph N/A   Mostly Cloudy
11:02 PM 41.0 °F 31.1 °F - N/A% 29.44 in 10.0 mi ESE 23.0 mph 35.7 mph N/A   Mostly Cloudy
11:55 PM 41.9 °F 31.7 °F - N/A% 29.44 in 10.0 mi ESE 26.5 mph 35.7 mph N/A   Mostly Cloudy